Overview Statistics Trail Chart Weather Telemetry Raw packets
 

This is the latest recevied weather packets stored in our database for station/object NW5W-12. If no packets are shown the sender has not sent any weather packets the latest 10 day(s).

<< 83 84 85 86 87 88 89 >>
Time Temp. Humidity Pressure Rain* Wind** Luminosity Snow
1788092640 12.78° C 81% 1019.5 hPa 1.02 mm - - -
1788092340 13.33° C 81% 1019.4 hPa 1.02 mm - - -
1788092040 13.33° C 79% 1019.5 hPa 1.02 mm - - -
1788091740 13.33° C 79% 1019.4 hPa 1.02 mm - - -
1788091439 13.89° C 77% 1019.3 hPa 1.02 mm - - -
1788091140 13.33° C 79% 1019.3 hPa 1.02 mm - - -
1788090840 13.33° C 82% 1019.2 hPa 1.02 mm - - -
1788090540 13.33° C 82% 1019.3 hPa 1.02 mm - - -
1788090240 13.33° C 82% 1019.4 hPa 1.02 mm - - -
1788089940 13.33° C 84% 1019.3 hPa 1.02 mm - - -
1788089640 13.33° C 82% 1019.5 hPa 1.02 mm - - -
1788089340 12.78° C 83% 1019.4 hPa 1.02 mm - - -
1788089040 12.78° C 84% 1018.7 hPa 1.02 mm - - -
1788088740 12.78° C 84% 1018.7 hPa 1.02 mm - - -
1788088440 12.78° C 83% 1018.8 hPa 1.02 mm - - -
1788088140 12.78° C 83% 1018.7 hPa 1.02 mm - - -
1788087840 12.78° C 83% 1018.7 hPa 1.02 mm - - -
1788087540 12.78° C 84% 1018.8 hPa 1.02 mm - - -
1788087239 12.78° C 84% 1018.9 hPa 1.02 mm - - -
1788086940 12.78° C 86% 1018.9 hPa 1.02 mm - - -
1788086639 12.78° C 86% 1018.9 hPa 1.02 mm - - -
1788086340 12.78° C 86% 1019 hPa 1.02 mm - - -
1788086040 12.78° C 86% 1019 hPa 1.02 mm - - -
1788085740 12.78° C 84% 1019.1 hPa 1.02 mm - - -
1788085440 12.78° C 84% 1019.1 hPa 1.02 mm - - -

* Rain since midnight (hover to see other rain measurements)
** Current wind speed in m/s (hover to see current wind gust speed)